Location: Gilevgi
(36.8751°N, 30.0581°E)
Time: 21:36:44
(UTC+00:00)

Okean 1 - Pass Details

Date: 11 December 2025
Orbit: 465 x 485 km, 82.5° (Epoch: 12 January)

Event Time Altitude Azimuth Distance (km) Brightness Sun altitude
Rises 16:52:18 0° 205° (SSW) 2,530 7.2 -25.0°
Reaches altitude 10° 16:54:32 10° 215° (SW) 1,651 6.3 -25.4°
Maximum altitude 16:57:49 33° 281° (W) 821 4.7 -26.1°
Enters shadow 16:58:21 32° 300° (WNW) 852 4.6 -26.2°
